This is the latest recevied weather packets stored in our database for station/object W7TRD. If no packets are shown the sender has not sent any weather packets the latest 1 day(s).
| Time | Temp. | Humidity | Pressure | Rain* | Wind** | Luminosity | Snow |
|---|---|---|---|---|---|---|---|
| 1778031585 | 17.78° C | 70% | 1016 hPa | 0 mm | 0 m/s | 154 W/m² | - |
| 1778031283 | 18.33° C | 68% | 1016.3 hPa | 0 mm | 0 m/s | 112 W/m² | - |
| 1778030979 | 17.78° C | 69% | 1016 hPa | 0 mm | 0 m/s | 155 W/m² | - |
| 1778030676 | 18.33° C | 69% | 1016.2 hPa | 0 mm | 0 m/s | 142 W/m² | - |
| 1778030373 | 18.33° C | 69% | 1016.2 hPa | 0 mm | 0 m/s | 120 W/m² | - |
| 1778030070 | 18.33° C | 69% | 1016.1 hPa | 0 mm | 0 m/s | 141 W/m² | - |
| 1778029767 | 17.78° C | 69% | 1016.2 hPa | 0 mm | 0 m/s | 162 W/m² | - |
| 1778029466 | 17.78° C | 72% | 1016.4 hPa | 0 mm | 0 m/s | 196 W/m² | - |
| 1778029161 | 17.22° C | 72% | 1016.2 hPa | 0 mm | 0 m/s | 118 W/m² | - |
| 1778028860 | 17.22° C | 72% | 1016.3 hPa | 0 mm | 0 m/s | 109 W/m² | - |
| 1778028554 | 17.22° C | 72% | 1016.1 hPa | 0 mm | 0 m/s | 114 W/m² | - |
| 1778028253 | 17.22° C | 72% | 1016.5 hPa | 0 mm | 0 m/s | 120 W/m² | - |
| 1778027948 | 17.22° C | 73% | 1016.4 hPa | 0 mm | 0 m/s | 122 W/m² | - |
| 1778027645 | 17.22° C | 73% | 1016.4 hPa | 0 mm | 0 m/s | 118 W/m² | - |
| 1778027342 | 16.67° C | 73% | 1016.4 hPa | 0 mm | 0.45 m/s, 178° | 114 W/m² | - |
| 1778027038 | 17.22° C | 73% | 1016.2 hPa | 0 mm | 0.45 m/s, 173° | 115 W/m² | - |
| 1778026733 | 17.22° C | 73% | 1016.4 hPa | 0 mm | 0 m/s | 117 W/m² | - |
| 1778026430 | 17.22° C | 73% | 1016.5 hPa | 0 mm | 0 m/s | 121 W/m² | - |
| 1778026133 | 17.22° C | 74% | 1016.4 hPa | 0 mm | 0.45 m/s, 173° | 123 W/m² | - |
| 1778025825 | 17.22° C | 73% | 1016.6 hPa | 0 mm | 0.45 m/s, 161° | 130 W/m² | - |
| 1778025522 | 17.22° C | 73% | 1016.4 hPa | 0 mm | 0.45 m/s, 196° | 130 W/m² | - |
| 1778025219 | 17.22° C | 73% | 1016.5 hPa | 0 mm | 0.45 m/s, 283° | 137 W/m² | - |
| 1778024916 | 17.22° C | 73% | 1016.5 hPa | 0 mm | 0.89 m/s, 205° | 143 W/m² | - |
| 1778024614 | 17.22° C | 73% | 1016.8 hPa | 0 mm | 0.45 m/s, 177° | 143 W/m² | - |
| 1778024316 | 17.22° C | 73% | 1016.7 hPa | 0 mm | 0.45 m/s, 175° | 142 W/m² | - |
* Rain latest hour (hover to see other rain measurements)
** Current wind speed in m/s (hover to see current wind gust speed)